Aérodrome :
LOGIN :

S'inscrire | Disclaimer

   EN    FR    IT 

 










Légende :    VFR   VFR Marginal   IFR   IFR Intensif   IFR Très Intensif
Visi : 
Plafond : 
>= 8 km
>= 3000ft
5 à 8 km
1000 à 3000 ft
1500m à 5 km
500 à 1000 ft
800 à 1500m
200 à 500 ft
< 800m
< 200 ft
Symboles :   Orages  Brouillard  Fortes neiges  Fortes précipitations  Vent > 20 kt
SIGMETs :   Divers  Orages  Givrage  Turbulence  Onde Orograph.  Cendres Volcan.







- Altitude de l'aérodrome : 236 ft
- Code IATA : MMX


ESMS - Malmö Sturup

DERNIER METAR :
  • 100220Z 28011KT 9999 SCT018 04/01 Q0997 R17/25//95

METARs EXPIRÉS :
  • 100150Z 28012KT 9999 FEW018 04/02 Q0996 R17/25//95
  • 100120Z 29012KT CAVOK 04/02 Q0996 R17/25//95
  • 100050Z 28011KT CAVOK 04/02 Q0996 R17/25//95
  • 100020Z 28011KT CAVOK 04/02 Q0995 R17/25//95
  • 092350Z 27010KT CAVOK 03/01 Q0995 R17/25//95

TAF TAF ESMS
Valide du 10 à 00h jusqu'au 11 à 00h UTC


092302Z 1000/1024 29008KT 9999 SCT025
PROB40 1006/1013 -SHRA SCT020CB
TEMPO 1009/1013 30015G25KT
TEMPO 1013/1024 30015G25KT -SHRA SCT020CB
Pas de NOTAMs connus pour ce terrain.



MET'MAP, la Météo Aéronautique d'un coup d'oeil ! - Copyright ORBIFLY Décembre 2007 - Disclaimer

ORBIFLY MET'MAP TEAM :

Programmation & Développement : Alexandra Zaïnal
Conception & Développement : Baudouin d'Aumeries
Co-Programmation & Développement : Marc-Olivier Méhu
Soutien technique & logistique : Manuel Goepfert

Contact : metmap@orbifly.com




SOURCES & CREDITS :

   NOAA